Weather in Dubá

Czech Republic     50°32′26″N   14°32′31″E
temp.,
°C
wind,
m/s
gust,
m/s
humid.,
%
clouds,
%
prec.,
mm/h
press.,
hPa
HPBL,
m
25 february, thu
thu2501:00+6ese12830 0.0 103122
04:00+5ese12840 0.0 103022
07:00+4ese12870 0.0 103022
10:00+9sse23710 0.0 1030230
13:00+13sse23600 0.0 1029404
16:00+13sse24640 0.0 1028268
19:00+8ese22820 0.0 102822
22:00+7se11850 0.0 102922
26 february, fri
fri2601:00+6se11870 0.0 102922
04:00+5sse01891 0.0 102922
07:00+4nnw008934 0.0 102922
10:00+9wnw127597 0.0 1030161
13:00+10nnw358099 0.0 1030497
16:00+7nnw51087100 0.8 1029561
19:00+5nw2785100 0.8 1031319
22:00+3nw229133 0.0 103234
27 february, sat
sat2701:00+2wnw229025 0.0 103331
04:00+1wnw23933 0.0 103379
07:000wnw259315 0.0 1034239
10:00+3nnw468486 0.0 1035652
13:00+3nnw468293 0.0 1035665
16:00+3nnw4682100 0.0 1035693
19:00+3nw3683100 0.0 1036345
22:00+1n249268 0.0 1037112
28 february, sun
sun2801:00+2n358184 0.0 1037225
04:000nw228863 0.0 103632
07:00−1n119038 0.0 103621
10:00+3nne237314 0.0 1036524
13:00+7nw11548 0.0 1035794
16:00+7ne12500 0.0 1034801
19:00+3ne11720 0.0 103522
22:00+2ne128136 0.0 103622
1 march, mon
mon101:00+1ne118418 0.0 103522
04:00+1ene11830 0.0 103522
07:000e11820 0.0 103522
10:00+5se23630 0.0 1036435
13:00+8se34540 0.0 1035646
16:00+8ese35550 0.0 1034604
19:00+4e34720 0.0 103560
22:00+2ese23830 0.0 103629